Flag for Morocco Weather past 2 weeks in Rabat, Morocco

Now
95 °F

Partly sunny.


Feels Like: 90 °F
Forecast: 62 / 82 °F
Wind: 14 mph from Northeast

Location: Rabat-Sale

Current Time: Oct 22, 2014 at 2:24:45 PM

Latest Report: Oct 22, 2014 at 2:00 PM


Visibility: 5 mi

Pressure: 30.09 "Hg

Humidity: 11%

Dew point: 34 °F

Location of RabatLocation

Historic Weather in Rabat — Graph

°F

Rabat temperature yesterday

Maximum temperature yesterday: 86 °F (at 11:30 AM)
Minimum temperature yesterday: 57 °F (at 6:30 AM)
Average temperature yesterday: 71 °F

Past Weeks' High & Low Weather Summary

 TemperatureHumidityPressure
High99 °F (Oct 19, 2:00 PM)100% (Oct 16, 8:00 AM)30.15 "Hg (Oct 16, 8:00 AM)
Low55 °F (Oct 13, 7:30 AM)10% (Oct 19, 2:00 PM)29.83 "Hg (Oct 11, 11:00 AM)
Average69 °F72%29.99 "Hg
* Reported Oct 7 1:00 PM — Oct 22 1:30 PM, Rabat, Weather by CustomWeather, © 2014

Note: Actual official high and low records may vary slightly from our data, if they occured in-between our weather recording intervals... More about our weather records

Advertising

Rabat weather history for previous 24 hours

 ConditionsComfort  
Time TempWeatherWind HumidityBarometerVisibility
1:30 PM
Oct 22
93 °FPartly sunny.13 mph13%30.09 "Hg5 mi
1:00 PM93 °FPartly sunny.10 mph14%30.09 "Hg5 mi
12:30 PMN/APartly sunny.8 mphN/AN/A5 mi
12:00 PM91 °FPartly sunny.8 mph15%30.12 "Hg5 mi
11:30 AM88 °FPartly sunny.8 mph19%30.15 "Hg5 mi
11:00 AM84 °FPartly sunny.6 mph23%30.15 "Hg5 mi
10:30 AM81 °FPartly sunny.5 mph28%30.15 "Hg5 mi
10:00 AM77 °FPartly sunny.7 mph36%30.15 "Hg4 mi
9:30 AM72 °FPartly sunny.3 mph53%30.15 "Hg4 mi
9:00 AM66 °FPartly sunny.No wind73%30.15 "Hg4 mi
8:30 AM64 °FPartly sunny.2 mph73%30.12 "Hg4 mi
8:00 AM61 °FPartly sunny.2 mph88%30.12 "Hg4 mi
7:00 AM55 °FFog.2 mph94%30.12 "Hg2 mi
6:30 AM55 °FFog.No wind88%30.12 "Hg2 mi
6:00 AM57 °FFog.No wind88%30.12 "Hg2 mi
5:30 AM57 °FFog.2 mph94%30.12 "Hg2 mi
5:00 AM57 °FFog.No wind94%30.12 "Hg2 mi
4:30 AM59 °FFog.3 mph88%30.12 "Hg2 mi
3:00 AM59 °FFog.No wind94%30.12 "Hg2 mi
2:00 AM57 °FFog.2 mph94%30.12 "Hg2 mi
12:00 AM61 °FFog.No wind94%30.15 "Hg1 mi
11:30 PM
Oct 21
61 °FFog.2 mph94%30.15 "Hg1 mi
11:00 PM61 °FFog.2 mph94%30.15 "Hg1 mi
10:30 PM61 °FFog.1 mph94%30.15 "Hg1 mi
10:00 PM64 °FFog.2 mph88%30.15 "Hg2 mi
9:00 PM64 °FFog.No wind88%30.15 "Hg2 mi
8:30 PM66 °FFog.2 mph88%30.15 "Hg2 mi
8:00 PM70 °FClear.2 mph83%30.15 "Hg3 mi
7:30 PM70 °FClear.3 mph83%30.15 "Hg5 mi
7:00 PM72 °FClear.5 mph78%30.12 "Hg5 mi
6:30 PM73 °FClear.7 mph69%30.12 "Hg5 mi
6:00 PM75 °FClear.9 mph65%30.12 "Hg4 mi
5:30 PM79 °FClear.10 mph54%30.12 "Hg4 mi
5:00 PM82 °FClear.8 mph37%30.12 "Hg3 mi
4:30 PM82 °FClear.9 mph35%30.09 "Hg3 mi
4:00 PM84 °FClear.9 mph33%30.12 "Hg3 mi
3:30 PM86 °FClear.7 mph29%30.09 "Hg4 mi
3:00 PM86 °FClear.5 mph27%30.12 "Hg4 mi
2:30 PM86 °FScattered clouds.6 mph31%30.12 "Hg4 mi
2:00 PM84 °FScattered clouds.7 mph37%30.12 "Hg4 mi
Weather by CustomWeather, © 2014

See weather overviewHow to use our weather pages